This is the latest recevied weather packets stored in our database for station/object IK6IHU-3. If no packets are shown the sender has not sent any weather packets the latest 1 day(s).
| Time | Temp. | Humidity | Pressure | Rain* | Wind** | Luminosity | Snow |
|---|---|---|---|---|---|---|---|
| 1777955422 | 15° C | 67% | 1013.5 hPa | 0 mm | 0 m/s | 0 W/m² | - |
| 1777955362 | 15° C | 67% | 1013.7 hPa | 0 mm | 0 m/s | 0 W/m² | - |
| 1777955302 | 15° C | 67% | 1013.4 hPa | 0 mm | 0 m/s | 0 W/m² | - |
| 1777955242 | 15° C | 67% | 1013.5 hPa | 0 mm | 0 m/s | 0 W/m² | - |
| 1777955182 | 15° C | 67% | 1013.7 hPa | 0 mm | 0.45 m/s, 290° | 0 W/m² | - |
| 1777955122 | 15° C | 67% | 1013.4 hPa | 0 mm | 0 m/s | 0 W/m² | - |
| 1777955062 | 15° C | 67% | 1013.5 hPa | 0 mm | 0.89 m/s, 292° | 0 W/m² | - |
| 1777955002 | 14.44° C | 67% | 1013.6 hPa | 0 mm | 0.89 m/s, 290° | 0 W/m² | - |
| 1777954942 | 14.44° C | 68% | 1013.4 hPa | 0 mm | 1.34 m/s, 289° | 0 W/m² | - |
| 1777954882 | 14.44° C | 68% | 1013.7 hPa | 0 mm | 1.79 m/s, 287° | 0 W/m² | - |
| 1777954822 | 14.44° C | 68% | 1013.5 hPa | 0 mm | 1.34 m/s, 285° | 0 W/m² | - |
| 1777954762 | 14.44° C | 68% | 1013.5 hPa | 0 mm | 1.34 m/s, 283° | 0 W/m² | - |
| 1777954702 | 14.44° C | 68% | 1013.6 hPa | 0 mm | 1.34 m/s, 281° | 0 W/m² | - |
| 1777954642 | 14.44° C | 68% | 1013.6 hPa | 0 mm | 0.89 m/s, 279° | 0 W/m² | - |
| 1777954582 | 14.44° C | 68% | 1013.6 hPa | 0 mm | 0 m/s | 0 W/m² | - |
| 1777954522 | 14.44° C | 68% | 1013.6 hPa | 0 mm | 0 m/s | 0 W/m² | - |
| 1777954462 | 14.44° C | 68% | 1013.6 hPa | 0 mm | 0 m/s | 0 W/m² | - |
| 1777954402 | 14.44° C | 68% | 1013.4 hPa | 0 mm | 0.45 m/s, 289° | 0 W/m² | - |
| 1777954342 | 14.44° C | 67% | 1013.5 hPa | 0 mm | 0 m/s | 0 W/m² | - |
| 1777954282 | 15° C | 67% | 1013.6 hPa | 0 mm | 0 m/s | 0 W/m² | - |
| 1777954222 | 15° C | 67% | 1013.4 hPa | 0 mm | 0 m/s | 0 W/m² | - |
| 1777954163 | 15° C | 67% | 1013.5 hPa | 0 mm | 0.45 m/s, 299° | 0 W/m² | - |
| 1777954102 | 15° C | 67% | 1013.4 hPa | 0 mm | 0.45 m/s, 299° | 0 W/m² | - |
| 1777954042 | 15° C | 67% | 1013.6 hPa | 0 mm | 0.89 m/s, 298° | 0 W/m² | - |
| 1777953982 | 14.44° C | 67% | 1013.6 hPa | 0 mm | 0.89 m/s, 298° | 0 W/m² | - |
* Rain latest hour (hover to see other rain measurements)
** Current wind speed in m/s (hover to see current wind gust speed)